Waarnemingen

Advertentie
Mijn weer
Girona/Costa Brava, Spanje (8184): temperatuur & dauwpunt: 17.11.2017 12:00:00 - 23.11.2017 12:00:00 (CET)Girona/Costa Brava, Spanje (8184): windsnelheid: 17.11.2017 12:00:00 - 23.11.2017 12:00:00 (CET)Girona/Costa Brava, Spanje (8184): windrichting: 17.11.2017 12:00:00 - 23.11.2017 12:00:00 (CET)Girona/Costa Brava, Spanje (8184): luchtdruk: 17.11.2017 12:00:00 - 23.11.2017 12:00:00 (CET)Girona/Costa Brava, Spanje (8184): zicht: 17.11.2017 12:00:00 - 23.11.2017 12:00:00 (CET)
Datum & Tijd tt [°C] td [°C] ff [km/u] ff [kn] dd ppp [hPa] vv [km]
23.11.2017 12:00:00 - - - - - - -
23.11.2017 11:00:00 14,8 8,8 0 0 N 1016,6 -
23.11.2017 10:00:00 11,3 8,7 4 2 NNO 1016,6 40
23.11.2017 09:00:00 8,1 7,1 0 0 N 1016,6 -
23.11.2017 08:00:00 6,6 5,7 4 2 NNO 1015,7 -
23.11.2017 07:00:00 6,8 5,1 5 3 NO 1015,3 30
23.11.2017 06:00:00 6,5 5,1 11 6 WZW 1014,9 -
23.11.2017 05:00:00 7,6 6,0 9 5 W 1014,8 -
23.11.2017 04:00:00 9,3 7,9 11 6 ZW 1014,4 -
23.11.2017 03:00:00 7,8 7,0 8 4 ZW 1014,6 -
23.11.2017 02:00:00 8,8 8,0 2 1 Z 1014,5 -
23.11.2017 01:00:00 10,3 9,2 13 7 ZZW 1014,6 -
23.11.2017 00:00:00 11,1 10,3 16 9 ZW 1014,9 -
22.11.2017 23:00:00 11,4 10,5 13 7 ZZW 1014,6 -
22.11.2017 22:00:00 12,1 11,2 13 7 ZW 1014,3 15
22.11.2017 21:00:00 11,5 10,6 9 5 ZZW 1014,0 -
22.11.2017 20:00:00 13,1 11,0 11 6 ZW 1014,0 -
22.11.2017 19:00:00 13,3 11,4 21 11 ZZW 1013,9 15
22.11.2017 18:00:00 14,1 11,4 22 12 ZZW 1013,5 -
22.11.2017 17:00:00 15,9 11,9 28 15 ZZW 1012,9 -
22.11.2017 16:00:00 17,6 11,6 34 18 ZZW 1013,0 20
22.11.2017 15:00:00 18,8 11,0 29 16 Z 1013,0 -
22.11.2017 14:00:00 20,0 10,1 26 14 Z 1013,3 -
22.11.2017 13:00:00 19,7 8,3 16 9 ZZW 1013,9 50
22.11.2017 12:00:00 17,5 8,1 18 10 ZZW 1015,3 -
22.11.2017 11:00:00 12,8 5,9 0 0 N 1016,3 -
22.11.2017 10:00:00 9,0 4,9 0 0 N 1016,8 50
22.11.2017 09:00:00 5,1 4,4 0 0 N 1016,9 -
22.11.2017 08:00:00 1,5 1,1 0 0 N 1016,6 -
22.11.2017 07:00:00 1,1 0,7 0 0 N 1016,7 20
22.11.2017 06:00:00 0,9 0,3 0 0 N 1016,7 -
22.11.2017 05:00:00 1,9 1,5 0 0 N 1017,0 -
22.11.2017 04:00:00 1,9 1,3 4 2 WZW 1017,5 -
22.11.2017 03:00:00 2,0 1,2 0 0 N 1017,9 -
22.11.2017 02:00:00 2,0 0,7 0 0 N 1018,1 -
22.11.2017 01:00:00 2,9 1,7 0 0 N 1018,7 -
22.11.2017 00:00:00 4,0 2,5 0 0 N 1019,2 -
21.11.2017 23:00:00 5,2 3,7 4 2 W 1019,2 -
21.11.2017 22:00:00 5,9 4,4 2 1 W 1019,3 15
21.11.2017 21:00:00 7,1 5,4 0 0 N 1019,2 -
21.11.2017 20:00:00 8,3 5,4 0 0 N 1019,3 -
21.11.2017 19:00:00 12,0 7,1 4 2 ZZW 1019,2 30
21.11.2017 18:00:00 15,0 8,0 4 2 ZZW 1018,8 -
21.11.2017 17:00:00 18,0 4,9 8 4 ZZO 1018,4 -
21.11.2017 16:00:00 21,2 4,9 8 4 ZO 1018,3 30
21.11.2017 15:00:00 22,1 5,8 5 3 ZZW 1018,4 -
21.11.2017 14:00:00 21,5 5,4 4 2 Z 1018,8 -
21.11.2017 13:00:00 19,8 5,4 4 2 ZZW 1019,5 30
21.11.2017 12:00:00 17,6 6,4 0 0 N 1020,5 -
21.11.2017 11:00:00 13,9 5,0 0 0 N 1021,0 -
21.11.2017 10:00:00 10,3 6,2 0 0 N 1021,1 30
21.11.2017 09:00:00 6,2 5,9 0 0 N 1021,3 -
21.11.2017 08:00:00 0,9 0,6 0 0 N 1021,4 -
21.11.2017 07:00:00 1,8 1,5 0 0 N 1020,9 7
21.11.2017 06:00:00 1,4 0,9 0 0 N 1021,0 -
21.11.2017 05:00:00 2,1 1,8 0 0 N 1020,8 -
21.11.2017 04:00:00 2,6 2,0 0 0 N 1020,9 -
21.11.2017 03:00:00 2,9 2,0 0 0 N 1021,3 -
21.11.2017 02:00:00 4,7 3,7 0 0 N 1021,3 -
21.11.2017 01:00:00 5,0 4,4 5 3 WZW 1021,6 -
21.11.2017 00:00:00 4,6 4,0 0 0 N 1021,8 -
20.11.2017 23:00:00 5,1 4,2 0 0 N 1021,8 -
20.11.2017 22:00:00 6,1 4,7 0 0 N 1022,0 25
20.11.2017 21:00:00 7,2 5,9 0 0 N 1021,9 -
20.11.2017 20:00:00 8,7 7,1 0 0 N 1021,7 -
20.11.2017 19:00:00 11,5 8,5 4 2 WZW 1021,1 10
20.11.2017 18:00:00 13,2 8,9 5 3 ZZW 1020,9 -
20.11.2017 17:00:00 15,6 9,1 11 6 ZZW 1020,6 -
20.11.2017 16:00:00 19,4 6,7 5 3 ZZW 1020,5 20
20.11.2017 15:00:00 19,8 4,9 4 2 ZW 1020,8 -
20.11.2017 14:00:00 18,9 7,3 5 3 Z 1021,4 -
20.11.2017 13:00:00 17,8 8,3 9 5 Z 1021,9 15
20.11.2017 12:00:00 15,5 7,1 4 2 Z 1022,7 -
20.11.2017 11:00:00 12,2 6,4 4 2 ZZO 1023,3 -
20.11.2017 10:00:00 9,3 5,8 0 0 N 1023,4 15
20.11.2017 09:00:00 4,5 3,8 2 1 ONO 1023,4 -
20.11.2017 08:00:00 1,2 0,9 0 0 N 1023,3 -
20.11.2017 07:00:00 1,1 0,4 0 0 N 1022,9 9
20.11.2017 06:00:00 1,6 1,2 0 0 N 1022,9 -
20.11.2017 05:00:00 2,2 1,8 0 0 N 1022,6 -
20.11.2017 04:00:00 1,9 1,6 2 1 NO 1022,9 9
20.11.2017 03:00:00 1,9 1,3 0 0 N 1023,0 -
20.11.2017 02:00:00 2,3 1,4 0 0 N 1022,7 -
20.11.2017 01:00:00 3,8 2,6 0 0 N 1022,8 9
20.11.2017 00:00:00 3,0 2,0 5 3 NO 1022,9 -
19.11.2017 23:00:00 4,8 3,4 4 2 ZW 1022,5 -
19.11.2017 22:00:00 5,9 3,3 0 0 N 1022,3 11
19.11.2017 21:00:00 6,7 4,4 0 0 N 1021,8 -
19.11.2017 20:00:00 7,6 4,2 0 0 N 1021,4 -
19.11.2017 19:00:00 11,6 5,9 4 2 W 1020,6 12
19.11.2017 18:00:00 13,1 6,3 4 2 WZW 1020,1 -
19.11.2017 17:00:00 15,8 0,4 8 4 ZZW 1019,5 -
19.11.2017 16:00:00 18,9 4,8 4 2 ZZW 1019,0 12
19.11.2017 15:00:00 18,8 8,9 4 2 ZW 1019,2 -
19.11.2017 14:00:00 18,1 9,5 5 3 Z 1019,7 -
19.11.2017 13:00:00 17,5 10,6 9 5 ZZW 1019,9 8
19.11.2017 12:00:00 15,9 8,9 0 0 N 1020,7 -
19.11.2017 11:00:00 11,9 7,0 0 0 N 1021,3 -
19.11.2017 10:00:00 7,7 5,7 0 0 N 1021,3 7
19.11.2017 09:00:00 3,4 3,3 0 0 N 1021,1 -
19.11.2017 08:00:00 0,6 0,6 0 0 N 1020,8 -
19.11.2017 07:00:00 0,8 0,7 0 0 N 1020,3 -
19.11.2017 06:00:00 1,0 0,9 0 0 N 1020,3 -
19.11.2017 05:00:00 1,5 1,2 0 0 N 1020,0 -
19.11.2017 04:00:00 2,5 2,2 0 0 N 1020,1 -
19.11.2017 03:00:00 2,7 2,4 0 0 N 1020,6 -
19.11.2017 02:00:00 3,4 3,0 0 0 N 1020,3 -
19.11.2017 01:00:00 4,7 4,4 0 0 N 1020,7 -
19.11.2017 00:00:00 5,6 5,3 0 0 N 1020,9 -
18.11.2017 23:00:00 6,2 5,8 0 0 N 1021,1 -
18.11.2017 22:00:00 6,8 6,4 2 1 NNO 1020,8 -
18.11.2017 21:00:00 8,7 7,1 0 0 N 1020,4 -
18.11.2017 20:00:00 9,7 8,5 0 0 N 1020,1 -
18.11.2017 19:00:00 11,7 8,7 4 2 ZW 1019,6 28
18.11.2017 18:00:00 13,0 9,1 2 1 ZZW 1019,2 -
18.11.2017 17:00:00 14,9 10,1 11 6 ZZW 1018,9 -
18.11.2017 16:00:00 18,1 10,1 13 7 Z 1018,4 -
18.11.2017 15:00:00 19,4 9,1 4 2 Z 1018,0 -
18.11.2017 14:00:00 19,3 9,6 8 4 Z 1018,3 -
18.11.2017 13:00:00 18,6 9,5 4 2 Z 1018,8 -
18.11.2017 12:00:00 16,2 6,9 2 1 NNO 1019,8 -
18.11.2017 11:00:00 13,7 6,8 4 2 ZZO 1019,9 -
18.11.2017 10:00:00 6,9 4,6 0 0 N 1020,4 -
18.11.2017 09:00:00 4,1 3,0 2 1 ONO 1020,3 -
18.11.2017 08:00:00 1,9 0,9 0 0 N 1019,8 -
18.11.2017 07:00:00 2,2 1,2 0 0 N 1019,5 30
18.11.2017 06:00:00 1,3 0,6 4 2 NO 1019,4 -
18.11.2017 05:00:00 1,8 0,8 4 2 NO 1019,4 -
18.11.2017 04:00:00 2,7 2,0 0 0 N 1019,3 -
18.11.2017 03:00:00 2,9 1,7 0 0 N 1019,3 -
18.11.2017 02:00:00 3,2 1,9 0 0 N 1019,2 -
18.11.2017 01:00:00 4,2 2,5 0 0 N 1019,4 -
18.11.2017 00:00:00 4,6 3,3 0 0 N 1019,8 -
17.11.2017 23:00:00 5,5 4,1 2 1 Z 1019,6 -
17.11.2017 22:00:00 6,1 4,9 0 0 N 1019,4 30
17.11.2017 21:00:00 6,5 4,8 0 0 N 1019,1 -
17.11.2017 20:00:00 9,4 6,2 0 0 N 1018,8 -
17.11.2017 19:00:00 10,5 6,0 0 0 N 1018,4 30
17.11.2017 18:00:00 12,9 6,9 0 0 N 1017,8 -
17.11.2017 17:00:00 15,8 6,8 8 4 ZO 1017,2 -
17.11.2017 16:00:00 20,6 1,5 5 3 Z 1016,8 60
17.11.2017 15:00:00 20,4 0,9 9 5 ZW 1016,8 -
17.11.2017 14:00:00 20,6 0,9 5 3 ZZW 1017,2 -
17.11.2017 13:00:00 19,8 1,5 0 0 N 1018,0 60
17.11.2017 12:00:00 16,3 5,4 4 2 ZZW 1018,7 -

tt = temperatuur
td = dauwpunt
ff = windsnelheid
dd = windrichting
ppp = luchtdruk
vv = zicht

Weerstations in de omgeving